Retour au catalogue

KPLO

ActifScienceVLEO
NORAD 53365·PAYLOAD·🇰🇷 South Korea

Lancé Aug 4, 2022 depuis Cape Canaveral Space Force Station

Loading…

Prochains Passages (prochaines 24 heures)

TLE

PériméSource: Space-Track

Époque: Aug 4, 2022, 23:16 UTC

1 53365U 22094A   22216.96995833  .00001843 -58274-5  00000-0 0  9992
2 53365  29.5000 147.2458 0003300 140.4700 307.5200 16.09976711    07

Suivez KPLO en temps réel avec AllMySat

Download on the App Store